Weather History for Pompano Beach, FL

Change the Weather History Date:

Sunday, August 18, 2013

  Actual Average Record
Temperature  
Mean Temperature 86 °F -  
Max Temperature 90 °F 92 °F 96 °F (1975)
Min Temperature 82 °F 75 °F 63 °F (1976)
Cooling Degree Days 20    
Growing Degree Days 36 (Base 50)    
Moisture  
Dew Point 76 °F    
Average Humidity 73    
Maximum Humidity 85    
Minimum Humidity 65    
Precipitation  
Precipitation 0.01 in - - ()
Sea Level Pressure  
Sea Level Pressure 30.05 in    
Wind  
Wind Speed 11 mph (ESE)    
Max Wind Speed 17 mph    
Max Gust Speed 22 mph    
Visibility 10 miles    
Events Rain    
Averages and records for this station are not official NWS values.
T = Trace of Precipitation, MM = Missing Value Source: NWS Daily Summary

Daily Weather History Graph

Daily Weather History Graph

Search for Another Location

Airport:

Trip Planner

Search our weather history database for the weather conditions in past years. The results will help you decide how hot, cold, wet, or windy it might be!

Date:

Astronomy

Aug. 18, 2013 Rise Set
Actual Time 6:54 AM EDT 7:53 PM EDT
Civil Twilight 6:30 AM EDT 8:17 PM EDT
Nautical Twilight 6:01 AM EDT 8:45 PM EDT
Astronomical Twilight 5:32 AM EDT 9:14 PM EDT
Moon 5:53 PM EDT (8/18) 4:10 AM EDT (8/18)
Length of Visible Light 13h 47m
Length of Day
12h 59m
Waxing Gibbous, 92% of the Moon is Illuminated
Aug 18
Waxing Gibbous
Aug 20
Full
Aug 28
Last Quarter
Sep 5
New
Sep 12
First Quarter

Hourly Weather History & Observations

Time (EDT) Temp. Heat Index Dew Point Humidity Pressure Visibility Wind Dir Wind Speed Gust Speed Precip Events Conditions
12:53 AM 84.0 °F 91.9 °F 75.0 °F 74% 30.08 in 10.0 mi East 10.4 mph - N/A   Partly Cloudy
1:53 AM 82.9 °F 90.2 °F 75.0 °F 77% 30.07 in 10.0 mi East 11.5 mph - N/A   Partly Cloudy
2:53 AM 82.9 °F 90.8 °F 75.9 °F 79% 30.05 in 10.0 mi East 9.2 mph - N/A   Unknown
3:53 AM 82.0 °F 90.2 °F 77.0 °F 85% 30.03 in 10.0 mi ESE 8.1 mph - 0.00 in Rain Light Rain
4:53 AM 82.9 °F 89.4 °F 73.9 °F 74% 30.03 in 10.0 mi East 8.1 mph - 0.00 in   Unknown
5:53 AM 82.9 °F 89.4 °F 73.9 °F 74% 30.03 in 10.0 mi East 6.9 mph - N/A   Unknown
6:53 AM 82.9 °F 88.8 °F 73.0 °F 72% 30.03 in 10.0 mi East 11.5 mph - N/A   Unknown
7:53 AM 84.0 °F 91.2 °F 73.9 °F 72% 30.05 in 10.0 mi ESE 10.4 mph - N/A   Unknown
8:53 AM 84.9 °F 93.3 °F 75.0 °F 72% 30.06 in 10.0 mi ESE 10.4 mph - N/A   Unknown
9:53 AM 87.1 °F 97.3 °F 75.9 °F 69% 30.08 in 10.0 mi East 12.7 mph - N/A   Unknown
10:53 AM 88.0 °F 98.5 °F 75.9 °F 67% 30.09 in 10.0 mi ESE 11.5 mph - N/A   Scattered Clouds
11:53 AM 89.1 °F 100.2 °F 75.9 °F 65% 30.09 in 10.0 mi ESE 13.8 mph - N/A   Scattered Clouds
12:53 PM 89.1 °F 100.2 °F 75.9 °F 65% 30.08 in 10.0 mi East 12.7 mph - N/A   Unknown
1:53 PM 89.1 °F 101.4 °F 77.0 °F 67% 30.07 in 10.0 mi East 17.3 mph 21.9 mph N/A   Mostly Cloudy
2:53 PM 82.9 °F 90.8 °F 75.9 °F 79% 30.06 in 9.0 mi ESE 10.4 mph 20.7 mph 0.01 in Rain Light Rain
3:53 PM 84.9 °F 92.1 °F 73.9 °F 69% 30.04 in 10.0 mi East 11.5 mph - 0.00 in   Scattered Clouds
4:53 PM 87.1 °F 98.8 °F 77.0 °F 72% 30.02 in 10.0 mi ESE 13.8 mph - N/A   Unknown
5:53 PM 87.1 °F 97.3 °F 75.9 °F 69% 30.01 in 10.0 mi East 15.0 mph - N/A   Scattered Clouds
6:53 PM 86.0 °F 96.0 °F 75.9 °F 72% 30.02 in 10.0 mi ESE 10.4 mph - N/A   Scattered Clouds
7:53 PM 86.0 °F 96.0 °F 75.9 °F 72% 30.03 in 10.0 mi East 9.2 mph - N/A   Scattered Clouds
8:53 PM 84.9 °F 94.1 °F 75.9 °F 74% 30.05 in 10.0 mi East 9.2 mph - N/A   Unknown
9:53 PM 84.9 °F 94.1 °F 75.9 °F 74% 30.07 in 10.0 mi East 9.2 mph - N/A   Scattered Clouds
10:53 PM - - - N/A% 30.09 in 10.0 mi East 10.4 mph - N/A   Unknown
11:53 PM 84.0 °F 93.7 °F 77.0 °F 79% 30.09 in 10.0 mi ESE 8.1 mph - N/A   Clear